Regional Weather Roundup
Issued by NWS

Home | Current Version | Previous Version | Graphics & Text | Print | Product List | Glossary On
Versions: 1 2 3 4 5 6 7 8 9 10 11 12 13 14 15 16 17 18 19 20 21 22 23 24 25 26 27 28 29 30 31 32 33 34 35 36 37 38 39 40 41 42 43 44 45 46 47 48 49 50
123
ASUS43 KLOT 092312
RWRIL

ILLINOIS REGIONAL WEATHER ROUNDUP
NATIONAL WEATHER SERVICE CHICAGO/ROMEOVILLE IL
500 PM CST FRI DEC 09 2016

NOTE: "FAIR" INDICATES FEW OR NO CLOUDS BELOW 12,000 FEET WITH NO
SIGNIFICANT WEATHER AND/OR OBSTRUCTIONS TO VISIBILITY.

* THESE STATIONS ARE NOT UNDER NWS QUALITY CONTROL. THEY ALSO MAY NOT
  REPORT WEATHER SUCH AS PRECIPITATION OR FOG.

ILZ001-002-007-009-015-016-024-100000-
NORTHWEST ILLINOIS

CITY           SKY/WX    TMP DP  RH WIND       PRES   REMARKS
MOLINE         PTCLDY    21  12  68 W7        30.56R WCI  12
STERLING*      CLEAR     20  14  77 W7        30.54S WCI  11
SAVANNA*       CLEAR     22  12  65 W7        30.54S WCI  13
$$

ILZ003-004-008-010-011-017-018-100000-
NORTH CENTRAL ILLINOIS

CITY           SKY/WX    TMP DP  RH WIND       PRES   REMARKS
ROCKFORD       PTCLDY    20  11  68 W5        30.53S WCI  13
FREEPORT*      PTCLDY    18  12  75 W3        30.53S
ROCHELLE*      PTCLDY    17  13  84 W7        30.52S WCI   8
DE KALB*       CLEAR     19  12  75 W9        30.51S WCI   8
$$

ILZ005-006-012>014-019>023-100000-
NORTHEAST ILLINOIS

CITY           SKY/WX    TMP DP  RH WIND       PRES   REMARKS
CHICAGO-OHARE  PTCLDY    22  12  65 W8        30.50R WCI  12
CHICAGO-MIDWAY PTCLDY    23  11  60 W9        30.51S WCI  13
AURORA         CLEAR     17  11  77 W7        30.53S WCI   8
LANSING*       PTCLDY    21  15  75 W7        30.52S WCI  13
JOLIET*        PTCLDY    23  14  69 W3        30.54R
WAUKEGAN       CLEAR     22  11  62 VRB5      30.48R WCI  16
DUPAGE AIRPORT CLEAR     20  11  68 W8        30.50S WCI  10
KANKAKEE*      CLOUDY    24  15  68 W8        30.54S WCI  15
WHEELING       CLEAR     23  12  62 W8        30.52R WCI  14
MORRIS*        MOCLDY    20  15  78 CALM      30.53S
ROMEOVILLE*    PTCLDY    20  15  82 W8        30.52S WCI  10
NORTHERLY ISL    N/A     24  13  62 W9          N/A  WCI  15
$$

LMZ740>746-100000-
SOUTHERN LAKE MICHIGAN

STATION/POSITION SKY/WX   TEMP    WIND        PRES    VSBY  WAVE
                          AIR SEA DIR/SP/G                  HT/PER
                          (F)     (DEG/KT/KT) (MB)    (MI)  (FT/S)
HARRISON CRIB              25     250/ 13/ 15   N/A
BURNHAM HARBOR             24     250/  9/ 13   N/A
CALUMET HARBOR             23     250/  6/  9 1032.4R
BURNS HARBOR               26     220/  9/ 15 1033.2S
$$

ILZ025>027-034>036-040-047-049-050-058-095>099-100000-
WEST-CENTRAL ILLINOIS

CITY           SKY/WX    TMP DP  RH WIND       PRES   REMARKS
QUINCY         CLOUDY    22  14  71 NW6       30.56F WCI  14
GALESBURG*     CLOUDY    22  14  71 NW6       30.56S WCI  14
MACOMB*        PTCLDY    20  14  76 W5        30.58S WCI  14
JACKSONVILLE*  CLOUDY    23  14  68 W6        30.58S WCI  16
PITTSFIELD*    CLOUDY    25  15  65 W3        30.58S
$$

ILZ028>032-037-038-041>044-048-051>054-059>061-100000-
CENTRAL ILLINOIS

CITY           SKY/WX    TMP DP  RH WIND       PRES   REMARKS
PONTIAC        CLOUDY    26  16  66 W8        30.55S WCI  17
BLOOMINGTON    LGT SNOW  22  16  78 SW12      30.55R WCI  10
DECATUR        CLOUDY    23  13  65 NW5       30.57S WCI  17
PEORIA         CLOUDY    24  12  60 W5        30.56S WCI  18
LACON*         MOCLDY    23  15  71 W6        30.55S WCI  16
LINCOLN*       CLOUDY    24  14  67 CALM      30.57S
SPRINGFIELD    CLOUDY    25  15  66 W6        30.58S WCI  18
TAYLORVILLE    CLOUDY    23  15  70 CALM      30.58S
$$

ILZ033-039-045-046-055>057-062-063-100000-
EAST-CENTRAL ILLINOIS

CITY           SKY/WX    TMP DP  RH WIND       PRES   REMARKS
CHAMPAIGN      CLOUDY    24  14  65 W13       30.56R WCI  12
RANTOUL*       FLURRIES  26  18  69 SW9       30.55R WCI  17
MATTOON        CLOUDY    23  14  68 W8        30.56S WCI  14
PARIS*         FLURRIES  25  17  73 W8        30.57R WCI  16
$$

ILZ079-100>102-100000-
SOUTHWEST ILLINOIS

CITY           SKY/WX    TMP DP  RH WIND       PRES   REMARKS
ALTON          PTCLDY    25  14  63 W5        30.59S WCI  19
BELLEVILLE     PTCLDY    26  12  57 CALM      30.57F
CAHOKIA*       CLEAR     27  12  53 CALM      30.58F
SPARTA*        CLEAR     27  13  56 CALM      30.58F
$$

ILZ064>066-069>071-074>076-080>082-084>086-088>090-092>094-100000-
SOUTH-CENTRAL ILLINOIS

CITY           SKY/WX    TMP DP  RH WIND       PRES   REMARKS
CARBONDALE     CLEAR     26  13  57 N6        30.58F WCI  19
CAIRO*         CLEAR     29  15  57 CALM      30.57F
EFFINGHAM*     CLOUDY    25  18  74 W7        30.59S WCI  17
MARION         PTCLDY    28  14  54 W12       30.58F WCI  18
CENTRALIA*     CLEAR     27  17  67 NW5       30.57F WCI  21
SALEM*         PTCLDY    27  16  63 NW3       30.57F
METROPOLIS*    CLEAR     29  17  59 CALM      30.58F
$$

ILZ067-068-072-073-078-083-087-091-100000-
SOUTHEAST ILLINOIS

CITY           SKY/WX    TMP DP  RH WIND       PRES   REMARKS
LAWRENCEVILLE  CLOUDY    26  16  65 CALM      30.58F
FLORA*         CLOUDY    28  16  61 W6        30.58F WCI  21
FAIRFIELD*     CLEAR     26  15  62 CALM      30.57F
HARRISBURG*    CLEAR     28  17  64 NW3       30.59S
ROBINSON*      CLOUDY    25  17  74 NW8       30.59F WCI  16
CARMI*         CLEAR     26  19  73 NW5       30.58S WCI  20
$$

ABBREVIATIONS USED IN REMARKS
   TC - TEMPERATURE IN CELSIUS
  WCI - WIND CHILL INDEX
   HX - HEAT INDEX
  VSB - VISIBILITY
$$





USA.gov is the U.S. government's official web portal to all federal, state and local government web resources and services.